• In Hungary
  • List of Countries
  • For 7 days
  • Water Temperature
  • Satellite Maps
  • Weather Map
  • News
  • Weather Widgets
  • user-avatar
    Login

    Hourly Weather Staiky

    Today, 15 December, Friday

    Time Temperature Precipitation Wind Pressure Humidity
    00:00 +3°C° 0 mm 2 mps 748 mmHg 91%
    01:00 +3°C° 0 mm 2 mps 748 mmHg 91%
    02:00 +3°C° 0 mm 2 mps 748 mmHg 93%
    03:00 +3°C° 0 mm 2 mps 748 mmHg 93%
    04:00 +3°C° 0 mm 2 mps 748 mmHg 93%
    05:00 +3°C° 0 mm 2 mps 748 mmHg 93%
    06:00 +3°C° 0.1 mm 2 mps 748 mmHg 93%
    07:00 +3°C° 0.1 mm 2 mps 748 mmHg 94%
    08:00 +2°C° 0 mm 2 mps 749 mmHg 94%
    09:00 +4°C° 0 mm 1 mps 749 mmHg 92%
    10:00 +5°C° 0 mm 1 mps 749 mmHg 89%
    11:00 +5°C° 0 mm 1 mps 749 mmHg 87%
    12:00 +5°C° 0 mm 2 mps 749 mmHg 86%
    13:00 +5°C° 0 mm 2 mps 749 mmHg 86%
    14:00 +4°C° 0 mm 3 mps 749 mmHg 85%
    15:00 +4°C° 0 mm 3 mps 749 mmHg 88%
    16:00 +3°C° 0 mm 3 mps 750 mmHg 90%
    17:00 +3°C° 0 mm 3 mps 750 mmHg 93%
    18:00 +3°C° 0 mm 4 mps 750 mmHg 93%
    19:00 +3°C° 0 mm 4 mps 749 mmHg 93%
    20:00 +3°C° 0 mm 4 mps 749 mmHg 93%
    21:00 +3°C° 0 mm 4 mps 749 mmHg 93%
    22:00 +2°C° 0 mm 5 mps 749 mmHg 92%
    23:00 +3°C° 0 mm 5 mps 749 mmHg 91%

    Tomorrow, 16 December, Saturday

    Time Temperature Precipitation Wind Pressure Humidity
    00:00 +3°C° 0 mm 5 mps 749 mmHg 91%
    01:00 +3°C° 0 mm 5 mps 749 mmHg 91%
    02:00 +3°C° 0 mm 5 mps 749 mmHg 91%
    03:00 +3°C° 0 mm 5 mps 749 mmHg 91%
    04:00 +3°C° 0 mm 5 mps 748 mmHg 92%
    05:00 +5°C° 0 mm 5 mps 748 mmHg 93%
    06:00 +4°C° 0 mm 6 mps 748 mmHg 93%
    07:00 +4°C° 0 mm 7 mps 747 mmHg 93%
    08:00 +5°C° 0 mm 8 mps 747 mmHg 94%
    09:00 +5°C° 0.6 mm 8 mps 747 mmHg 92%
    10:00 +6°C° 0.6 mm 8 mps 746 mmHg 90%
    11:00 +7°C° 0.6 mm 9 mps 746 mmHg 89%
    12:00 +8°C° 0.1 mm 9 mps 745 mmHg 83%
    13:00 +8°C° 0.1 mm 9 mps 745 mmHg 77%
    14:00 +10°C° 0.1 mm 9 mps 744 mmHg 72%
    15:00 +10°C° 0 mm 9 mps 744 mmHg 74%
    16:00 +10°C° 0 mm 9 mps 745 mmHg 76%
    17:00 +10°C° 0 mm 8 mps 745 mmHg 79%
    18:00 +10°C° 0 mm 8 mps 745 mmHg 81%
    19:00 +10°C° 0 mm 8 mps 745 mmHg 83%
    20:00 +10°C° 0 mm 8 mps 745 mmHg 84%
    21:00 +9°C° 0 mm 7 mps 745 mmHg 86%
    22:00 +9°C° 0 mm 7 mps 746 mmHg 87%
    23:00 +9°C° 0 mm 6 mps 746 mmHg 89%

    Day after tomorrow, 17 December, Sunday

    Time Temperature Precipitation Wind Pressure Humidity
    00:00 +8°C° 0 mm 5 mps 747 mmHg 89%
    01:00 +8°C° 0 mm 5 mps 748 mmHg 90%
    02:00 +7°C° 0 mm 4 mps 748 mmHg 90%
    03:00 +6°C° 0.1 mm 4 mps 748 mmHg 87%
    04:00 +5°C° 0.1 mm 3 mps 749 mmHg 85%
    05:00 +4°C° 0.1 mm 3 mps 749 mmHg 82%
    06:00 +4°C° 0.4 mm 3 mps 749 mmHg 81%
    07:00 +4°C° 0.4 mm 3 mps 749 mmHg 81%
    08:00 +3°C° 0.4 mm 3 mps 750 mmHg 81%
    09:00 +3°C° 0.6 mm 4 mps 750 mmHg 81%
    10:00 +3°C° 0.6 mm 4 mps 750 mmHg 82%
    11:00 +3°C° 0.6 mm 4 mps 750 mmHg 82%
    12:00 +3°C° 1.5 mm 4 mps 749 mmHg 84%
    13:00 +2°C° 1.5 mm 5 mps 749 mmHg 86%
    14:00 +1°C° 1.5 mm 5 mps 749 mmHg 88%
    15:00 +1°C° 1.4 mm 5 mps 749 mmHg 89%
    16:00 +1°C° 1.4 mm 5 mps 749 mmHg 90%
    17:00 +1°C° 1.4 mm 5 mps 749 mmHg 91%
    18:00 +1°C° 0.5 mm 5 mps 749 mmHg 91%
    19:00 -1°C° 0.5 mm 6 mps 749 mmHg 92%
    20:00 -1°C° 0.5 mm 6 mps 749 mmHg 92%
    21:00 -1°C° 0.6 mm 6 mps 749 mmHg 92%
    22:00 -1°C° 0.6 mm 6 mps 749 mmHg 92%
    23:00 -1°C° 0.6 mm 6 mps 749 mmHg 92%

    18 December, Monday

    Time Temperature Precipitation Wind Pressure Humidity
    00:00 -1°C° 0.6 mm 7 mps 748 mmHg 91%
    01:00 -1°C° 0.6 mm 7 mps 748 mmHg 91%
    02:00 -2°C° 0.6 mm 7 mps 748 mmHg 91%
    03:00 -2°C° 0.6 mm 7 mps 748 mmHg 91%
    04:00 -2°C° 0.6 mm 7 mps 748 mmHg 90%
    05:00 -2°C° 0.6 mm 8 mps 748 mmHg 90%
    06:00 -2°C° 0.6 mm 8 mps 748 mmHg 90%
    07:00 -2°C° 0.6 mm 8 mps 748 mmHg 90%
    08:00 -4°C° 0.6 mm 8 mps 748 mmHg 90%
    09:00 -4°C° 0.6 mm 8 mps 748 mmHg 89%
    10:00 -4°C° 0.6 mm 8 mps 749 mmHg 89%
    11:00 -4°C° 0.6 mm 8 mps 749 mmHg 89%
    12:00 -4°C° 0.3 mm 8 mps 749 mmHg 88%
    13:00 -4°C° 0.3 mm 8 mps 750 mmHg 87%
    14:00 -4°C° 0.3 mm 8 mps 750 mmHg 85%
    15:00 -3°C° 0 mm 7 mps 751 mmHg 85%
    16:00 -4°C° 0 mm 7 mps 751 mmHg 84%
    17:00 -4°C° 0 mm 6 mps 752 mmHg 84%
    18:00 -4°C° 0 mm 6 mps 752 mmHg 85%
    19:00 -5°C° 0 mm 5 mps 753 mmHg 87%
    20:00 -5°C° 0 mm 5 mps 754 mmHg 88%
    21:00 -5°C° 0 mm 5 mps 754 mmHg 89%
    22:00 -4°C° 0 mm 4 mps 754 mmHg 90%
    23:00 -5°C° 0 mm 4 mps 755 mmHg 91%

    19 December, Tuesday

    Time Temperature Precipitation Wind Pressure Humidity
    00:00 -5°C° 0 mm 4 mps 755 mmHg 91%
    01:00 -5°C° 0 mm 4 mps 755 mmHg 91%
    02:00 -5°C° 0 mm 4 mps 756 mmHg 91%
    03:00 -5°C° 0 mm 3 mps 756 mmHg 90%
    04:00 -4°C° 0 mm 3 mps 756 mmHg 89%
    05:00 -4°C° 0 mm 3 mps 756 mmHg 88%
    06:00 -4°C° 0 mm 3 mps 756 mmHg 88%
    07:00 -4°C° 0 mm 3 mps 757 mmHg 88%
    08:00 -3°C° 0 mm 2 mps 757 mmHg 87%
    09:00 -4°C° 0 mm 3 mps 758 mmHg 86%
    10:00 -2°C° 0 mm 3 mps 758 mmHg 84%
    11:00 -2°C° 0 mm 3 mps 758 mmHg 82%
    12:00 -2°C° 0.1 mm 3 mps 758 mmHg 83%
    13:00 -2°C° 0.1 mm 3 mps 758 mmHg 83%
    14:00 -2°C° 0.1 mm 3 mps 758 mmHg 83%
    15:00 -2°C° 0 mm 3 mps 759 mmHg 86%
    16:00 -4°C° 0 mm 3 mps 759 mmHg 88%
    17:00 -3°C° 0 mm 2 mps 759 mmHg 90%
    18:00 -3°C° 0 mm 2 mps 760 mmHg 90%
    19:00 -3°C° 0 mm 2 mps 760 mmHg 90%
    20:00 -3°C° 0 mm 2 mps 760 mmHg 90%
    21:00 -4°C° 0 mm 2 mps 760 mmHg 90%
    22:00 -4°C° 0 mm 2 mps 761 mmHg 90%
    23:00 -4°C° 0 mm 2 mps 761 mmHg 91%

    20 December, Wednesday

    Time Temperature Precipitation Wind Pressure Humidity
    00:00 -5°C° 0 mm 3 mps 761 mmHg 91%
    01:00 -5°C° 0 mm 3 mps 761 mmHg 92%
    02:00 -6°C° 0 mm 3 mps 761 mmHg 92%
    03:00 -6°C° 0 mm 3 mps 762 mmHg 92%
    04:00 -5°C° 0 mm 2 mps 762 mmHg 92%
    05:00 -5°C° 0 mm 2 mps 762 mmHg 93%
    06:00 -5°C° 0 mm 2 mps 762 mmHg 92%
    07:00 -5°C° 0 mm 2 mps 762 mmHg 92%
    08:00 -5°C° 0 mm 2 mps 763 mmHg 91%
    09:00 -5°C° 0 mm 3 mps 763 mmHg 89%
    10:00 -5°C° 0 mm 3 mps 763 mmHg 86%
    11:00 -4°C° 0 mm 4 mps 763 mmHg 84%
    12:00 -4°C° 0 mm 4 mps 763 mmHg 84%
    13:00 -4°C° 0 mm 4 mps 763 mmHg 83%
    14:00 -4°C° 0 mm 4 mps 763 mmHg 83%
    15:00 -5°C° 0 mm 3 mps 763 mmHg 84%
    16:00 -5°C° 0 mm 3 mps 763 mmHg 86%
    17:00 -5°C° 0 mm 3 mps 763 mmHg 87%
    18:00 -6°C° 0 mm 3 mps 763 mmHg 87%
    19:00 -6°C° 0 mm 3 mps 763 mmHg 87%
    20:00 -6°C° 0 mm 3 mps 763 mmHg 87%
    21:00 -6°C° 0 mm 3 mps 763 mmHg 86%
    22:00 -5°C° 0 mm 3 mps 763 mmHg 86%
    23:00 -5°C° 0 mm 3 mps 763 mmHg 85%
    Show more